Home   Weather   Rüsselsheim   Past weeks

Flag for Germany Past Weather in Rüsselsheim, Hesse, Germany — Yesterday and Last 2 Weeks

Now
34 °F

Clear.


Feels Like: 34 °F
Forecast: 19 / 27 °F
Wind: No wind

Location: Wiesbaden Airport

Current Time: Jan 21, 2017 at 6:40:23 pm

Latest Report: Jan 21, 2017 at 5:58 pm


Visibility: N/A

Pressure: 30.41 "Hg

Humidity: 56%

Dew Point: 19 °F

Location of RüsselsheimLocation

Past Weather in Rüsselsheim — Graph

°F

Rüsselsheim Temperature Yesterday

Maximum temperature yesterday: 41 °F (at 1:58 pm)
Minimum temperature yesterday: 20 °F (at 6:58 am)
Average temperature yesterday: 31 °F

High & Low Weather Summary for the Past Weeks

 TemperatureHumidityPressure
High43 °F (Jan 13, 2:06 am)100% (Jan 7, 10:06 pm)30.76 "Hg (Jan 7, 10:06 pm)
Low14 °F (Jan 7, 3:58 am)20% (Jan 20, 1:58 pm)29.13 "Hg (Jan 13, 2:06 am)
Average32 °F83%30.13 "Hg
* Reported Jan 6 4:58 pm — Jan 21 4:58 pm, Rüsselsheim, Weather by CustomWeather, © 2017

Note: Actual official high and low records may vary slightly from our data, if they occured in-between our weather recording intervals... More about our weather records

Advertising

Rüsselsheim Weather History for the Previous 24 Hours

Scroll right to see more
 ConditionsComfort  
Time TempWeatherWind HumidityBarometerVisibility
4:58 pm
Sat, Jan 21
36 °FSunny.3 mph51%30.40 "HgN/A
3:58 pm37 °FSunny.9 mph46%30.40 "HgN/A
2:58 pm38 °FSunny.9 mph44%30.40 "HgN/A
1:58 pm37 °FSunny.10 mph44%30.42 "HgN/A
12:58 pm36 °FSunny.9 mph48%30.44 "HgN/A
11:58 am34 °FSunny.9 mph51%30.46 "HgN/A
10:58 am32 °FSunny.8 mph64%30.47 "HgN/A
9:58 am30 °FSunny.8 mph72%30.47 "HgN/A
8:58 am25 °FSunny.No wind74%30.47 "HgN/A
7:58 am23 °FClear.No wind84%30.47 "HgN/A
6:58 am23 °FClear.No wind86%30.47 "HgN/A
5:58 am25 °FClear.No wind80%30.47 "HgN/A
4:58 am24 °FClear.No wind84%30.47 "HgN/A
3:58 am24 °FClear.No wind83%30.48 "HgN/A
2:58 am23 °FClear.5 mph84%30.48 "HgN/A
1:58 am31 °FClear.5 mph69%30.47 "HgN/A
12:58 am32 °FClear.No wind64%30.48 "HgN/A
11:58 pm
Fri, Jan 20
29 °FClear.No wind72%30.49 "HgN/A
10:58 pm34 °FClear.7 mph65%30.49 "HgN/A
9:58 pm34 °FClear.8 mph59%30.50 "HgN/A
8:58 pm36 °FClear.8 mph55%30.51 "HgN/A
7:58 pm30 °FClear.3 mph64%30.51 "HgN/A
6:58 pm34 °FClear.No wind51%30.51 "HgN/A
Weather by CustomWeather, © 2017

See weather overviewHow to use our weather pages